Volver al catálogo

COSMOS 2236

GLONASS

ActivoNavegaciónMEO
NORAD 22513·PAYLOAD·🇷🇺 Russia

Lanzado Feb 17, 1993 desde Baikonur Cosmodrome

Loading…

Próximos Pases (próximas 24 horas)

TLE

ActualizadoSource: Space-Track

Época: Sep 13, 2026, 12:05 UTC

1 22513U 93010B   26256.50368495 -.00000014  00000-0  00000-0 0  9993
2 22513  64.9541  66.9525 0005466  83.2188 266.8735  2.13104576261250

Sigue COSMOS 2236 en tiempo real con AllMySat

Download on the App Store